Zurück zum Katalog

STARLINK-34469

AktivKommunikationVLEO
NORAD 64615·PAYLOAD·🇺🇸 United States

Gestartet Jun 25, 2025 von Cape Canaveral Space Force Station

Loading…

Nächste Überflüge (nächste 24 Stunden)

TLE

AktuellSource: CelesTrak SupGP

Epoche: Sep 14, 2026, 23:13 UTC

1 64615C 25137X   26257.96784722 -.00071718  00000+0 -21187-2 0  2570
2 64615  53.1594 175.2608 0001339  85.4180 340.4563 15.34429548    13

Verfolge STARLINK-34469 in Echtzeit mit AllMySat

Download on the App Store